N77VJ KMIC-KRDU

Flight info

Callsign N77VJ
Flight time 1h 59m
Altitude 41000
Route GEP J36 DUTYS OBK HVQ J24 TUKEY FRIKY ALDAN4
Aircraft C25C/L-SDFGHIJOR/C

Departure

Time 2026-05-06 22:50
Airport Crystal Airport (KMIC)

Arrival

Time 2026-05-07 00:49
Airport Raleigh-Durham International Airport (KRDU)
Time Latitude Longitude Altitude Speed Heading
2026-05-06 22:39 45.06057 -93.35522 871 ft 0 kts 179°
2026-05-06 22:47 45.06055 -93.35519 871 ft 1 kts 121°
2026-05-06 22:47 45.06041 -93.35434 871 ft 14 kts 125°
2026-05-06 22:48 45.05968 -93.35346 871 ft 13 kts 141°
2026-05-06 22:48 45.05898 -93.35267 871 ft 13 kts 142°
2026-05-06 22:48 45.05832 -93.35192 871 ft 12 kts 141°
2026-05-06 22:48 45.05769 -93.35122 871 ft 11 kts 141°
2026-05-06 22:49 45.05743 -93.35034 872 ft 9 kts 63°
2026-05-06 22:49 45.05774 -93.34975 871 ft 5 kts 51°
2026-05-06 22:49 45.05805 -93.34929 871 ft 6 kts 28°
2026-05-06 22:49 45.05848 -93.34957 871 ft 10 kts 321°
2026-05-06 22:50 45.06043 -93.35176 871 ft 75 kts 321°
2026-05-06 22:50 45.06670 -93.35850 1092 ft 132 kts 323°
2026-05-06 22:50 45.07494 -93.36656 1996 ft 160 kts 321°
2026-05-06 22:50 45.08510 -93.37728 2695 ft 205 kts 320°
2026-05-06 22:51 45.09762 -93.39084 3346 ft 250 kts 328°
2026-05-06 22:51 45.11557 -93.39484 4370 ft 266 kts
2026-05-06 22:51 45.13222 -93.38839 5498 ft 241 kts 21°
2026-05-06 22:51 45.14334 -93.37195 6600 ft 235 kts 65°
2026-05-06 22:52 45.14438 -93.34840 7703 ft 253 kts 96°
2026-05-06 22:52 45.14130 -93.32295 8855 ft 275 kts 101°
2026-05-06 22:52 45.13233 -93.29870 10028 ft 292 kts 136°
2026-05-06 22:52 45.11619 -93.27987 11150 ft 306 kts 145°
2026-05-06 22:53 45.09877 -93.26181 12260 ft 321 kts 147°
2026-05-06 22:53 45.07992 -93.24321 13356 ft 336 kts 148°
2026-05-06 22:53 45.06024 -93.22416 14412 ft 347 kts 149°
2026-05-06 22:53 45.04041 -93.20437 15418 ft 357 kts 144°
2026-05-06 22:54 45.02179 -93.18013 16487 ft 367 kts 134°
2026-05-06 22:54 45.00530 -93.15244 17560 ft 374 kts 130°
2026-05-06 22:54 44.99452 -93.13313 18295 ft 377 kts 130°
2026-05-06 22:54 44.97768 -93.10432 19280 ft 379 kts 135°
2026-05-06 22:55 44.95975 -93.07712 20275 ft 380 kts 137°
2026-05-06 22:55 44.94155 -93.04927 21183 ft 386 kts 137°
2026-05-06 22:55 44.92388 -93.02104 22098 ft 389 kts 137°
2026-05-06 22:55 44.90588 -92.99220 23051 ft 392 kts 138°
2026-05-06 22:56 44.88759 -92.96337 23938 ft 392 kts 140°
2026-05-06 22:56 44.86934 -92.93487 24637 ft 397 kts 141°
2026-05-06 22:56 44.85082 -92.90581 25335 ft 400 kts 141°
2026-05-06 22:56 44.83219 -92.87637 26078 ft 402 kts 142°
2026-05-06 22:57 44.81343 -92.84690 26842 ft 403 kts 143°
2026-05-06 22:57 44.79482 -92.81771 27589 ft 403 kts 143°
2026-05-06 22:57 44.77612 -92.78846 28376 ft 402 kts 144°
2026-05-06 22:57 44.75748 -92.75924 29178 ft 401 kts 145°
2026-05-06 22:58 44.73878 -92.72999 29999 ft 400 kts 146°
2026-05-06 22:58 44.72006 -92.70087 30476 ft 405 kts 146°
2026-05-06 22:58 44.70124 -92.67157 30947 ft 410 kts 145°
2026-05-06 22:58 44.68198 -92.64149 31433 ft 413 kts 145°
2026-05-06 22:59 44.66275 -92.61148 31922 ft 416 kts 145°
2026-05-06 22:59 44.64317 -92.58105 32431 ft 418 kts 145°
2026-05-06 22:59 44.62375 -92.55090 32943 ft 420 kts 144°
2026-05-06 22:59 44.60401 -92.52022 33474 ft 421 kts 144°
2026-05-06 23:00 44.58452 -92.49001 33998 ft 421 kts 144°
2026-05-06 23:00 44.56468 -92.45933 34395 ft 423 kts 144°
2026-05-06 23:00 44.54472 -92.42847 34757 ft 426 kts 144°
2026-05-06 23:00 44.52495 -92.39793 35122 ft 428 kts 144°
2026-05-06 23:01 44.50480 -92.36679 35498 ft 430 kts 144°
2026-05-06 23:01 44.48473 -92.33587 35871 ft 431 kts 143°
2026-05-06 23:01 44.46445 -92.30465 36261 ft 431 kts 143°
2026-05-06 23:01 44.44440 -92.27376 36649 ft 432 kts 143°
2026-05-06 23:02 44.42405 -92.24255 36936 ft 436 kts 143°
2026-05-06 23:02 44.40362 -92.21123 37186 ft 440 kts 143°
2026-05-06 23:02 44.38274 -92.17923 37447 ft 444 kts 142°
2026-05-06 23:02 44.36198 -92.14739 37708 ft 448 kts 142°
2026-05-06 23:03 44.34082 -92.11502 37971 ft 450 kts 142°
2026-05-06 23:03 44.31970 -92.08275 38244 ft 453 kts 142°
2026-05-06 23:03 44.29858 -92.05053 38509 ft 455 kts 142°
2026-05-06 23:03 44.27711 -92.01781 38769 ft 457 kts 142°
2026-05-06 23:04 44.25554 -91.98493 39064 ft 456 kts 142°
2026-05-06 23:04 44.23410 -91.95224 39427 ft 452 kts 142°
2026-05-06 23:04 44.21313 -91.92043 39796 ft 448 kts 142°
2026-05-06 23:04 44.19197 -91.88835 40178 ft 445 kts 142°
2026-05-06 23:05 44.17097 -91.85654 40556 ft 442 kts 142°
2026-05-06 23:05 44.15041 -91.82537 40920 ft 439 kts 141°
2026-05-06 23:05 44.12965 -91.79406 41035 ft 444 kts 142°
2026-05-06 23:06 44.08707 -91.72987 41074 ft 458 kts 141°
2026-05-06 23:06 44.04318 -91.66368 41079 ft 468 kts 141°
2026-05-06 23:07 43.99870 -91.59689 41084 ft 474 kts 141°
2026-05-06 23:07 43.95382 -91.52959 41084 ft 480 kts 141°
2026-05-06 23:08 43.91111 -91.45699 41072 ft 495 kts 130°
2026-05-06 23:08 43.87847 -91.37151 41073 ft 505 kts 122°
2026-05-06 23:09 43.84741 -91.28408 41071 ft 506 kts 122°
2026-05-06 23:09 43.81636 -91.19667 41071 ft 507 kts 122°
2026-05-06 23:10 43.78502 -91.10882 41073 ft 507 kts 122°
2026-05-06 23:10 43.75367 -91.02124 41074 ft 508 kts 122°
2026-05-06 23:11 43.72228 -90.93374 41077 ft 509 kts 122°
2026-05-06 23:11 43.69079 -90.84636 41066 ft 510 kts 122°
2026-05-06 23:12 43.65898 -90.75829 41063 ft 510 kts 122°
2026-05-06 23:12 43.62744 -90.67123 41062 ft 511 kts 122°
2026-05-06 23:13 43.59539 -90.58309 41061 ft 511 kts 122°
2026-05-06 23:13 43.56344 -90.49549 41057 ft 512 kts 122°
2026-05-06 23:14 43.53151 -90.40822 41057 ft 512 kts 122°
2026-05-06 23:14 43.49923 -90.32026 41054 ft 512 kts 122°
2026-05-06 23:15 43.46705 -90.23283 41049 ft 513 kts 122°
2026-05-06 23:15 43.43474 -90.14536 41043 ft 513 kts 122°
2026-05-06 23:16 43.40233 -90.05786 41049 ft 513 kts 122°
2026-05-06 23:16 43.36985 -89.97048 41044 ft 513 kts 123°
2026-05-06 23:17 43.33721 -89.88294 41044 ft 514 kts 123°
2026-05-06 23:17 43.30464 -89.79583 41032 ft 514 kts 123°
2026-05-06 23:18 43.27196 -89.70871 41032 ft 514 kts 123°
2026-05-06 23:18 43.23906 -89.62126 41025 ft 515 kts 123°
2026-05-06 23:19 43.20615 -89.53408 41017 ft 515 kts 123°
2026-05-06 23:19 43.17317 -89.44697 41018 ft 515 kts 123°
2026-05-06 23:20 43.13975 -89.36024 41016 ft 512 kts 127°
2026-05-06 23:20 43.09747 -89.28337 41019 ft 500 kts 140°
2026-05-06 23:21 43.05135 -89.21176 41019 ft 501 kts 139°
2026-05-06 23:21 43.00519 -89.14017 41016 ft 501 kts 140°
2026-05-06 23:22 42.95920 -89.06911 41015 ft 502 kts 140°
2026-05-06 23:22 42.91277 -88.99750 41021 ft 502 kts 140°
2026-05-06 23:23 42.86659 -88.92647 41015 ft 502 kts 140°
2026-05-06 23:23 42.82003 -88.85501 41019 ft 502 kts 140°
2026-05-06 23:24 42.77370 -88.78410 41017 ft 503 kts 140°
2026-05-06 23:24 42.72720 -88.71310 41015 ft 503 kts 140°
2026-05-06 23:25 42.68058 -88.64207 41011 ft 503 kts 140°
2026-05-06 23:25 42.63369 -88.57083 41010 ft 503 kts 140°
2026-05-06 23:26 42.58710 -88.50020 41002 ft 504 kts 140°
2026-05-06 23:26 42.54020 -88.42926 41005 ft 504 kts 140°
2026-05-06 23:27 42.49340 -88.35866 41010 ft 504 kts 140°
2026-05-06 23:27 42.44654 -88.28817 41008 ft 504 kts 141°
2026-05-06 23:28 42.39959 -88.21768 40999 ft 504 kts 141°
2026-05-06 23:28 42.35264 -88.14736 40992 ft 504 kts 141°
2026-05-06 23:29 42.30574 -88.07729 40990 ft 504 kts 141°
2026-05-06 23:29 42.25874 -88.00725 40999 ft 504 kts 141°
2026-05-06 23:30 42.21224 -87.93563 41001 ft 510 kts 135°
2026-05-06 23:30 42.16923 -87.85944 40999 ft 510 kts 136°
2026-05-06 23:31 42.12620 -87.78386 41001 ft 511 kts 135°
2026-05-06 23:31 42.08300 -87.70778 41001 ft 511 kts 135°
2026-05-06 23:32 42.03975 -87.63210 40997 ft 511 kts 135°
2026-05-06 23:32 41.99636 -87.55614 40993 ft 511 kts 136°
2026-05-06 23:33 41.95301 -87.48061 40995 ft 511 kts 136°
2026-05-06 23:33 41.90957 -87.40503 40997 ft 511 kts 136°
2026-05-06 23:34 41.86613 -87.32968 40988 ft 511 kts 136°
2026-05-06 23:34 41.82258 -87.25427 40985 ft 511 kts 136°
2026-05-06 23:35 41.78594 -87.19100 40988 ft 511 kts 136°
2026-05-06 23:35 41.74240 -87.11599 40997 ft 511 kts 136°
2026-05-06 23:36 41.69860 -87.04072 40999 ft 512 kts 136°
2026-05-06 23:36 41.65486 -86.96574 41000 ft 512 kts 136°
2026-05-06 23:37 41.61097 -86.89067 41000 ft 512 kts 136°
2026-05-06 23:37 41.56708 -86.81578 40988 ft 512 kts 136°
2026-05-06 23:38 41.52298 -86.74076 40994 ft 512 kts 137°
2026-05-06 23:38 41.47891 -86.66595 40991 ft 513 kts 137°
2026-05-06 23:39 41.43465 -86.59100 41003 ft 513 kts 137°
2026-05-06 23:39 41.39051 -86.51642 41002 ft 513 kts 137°
2026-05-06 23:40 41.34630 -86.44192 40998 ft 513 kts 137°
2026-05-06 23:40 41.30206 -86.36756 40996 ft 514 kts 137°
2026-05-06 23:41 41.25769 -86.29317 40998 ft 514 kts 137°
2026-05-06 23:41 41.21299 -86.21837 41000 ft 514 kts 137°
2026-05-06 23:42 41.16848 -86.14409 41012 ft 514 kts 139°
2026-05-06 23:42 41.12419 -86.07035 41010 ft 511 kts 139°
2026-05-06 23:43 41.07990 -85.99681 41093 ft 507 kts 139°
2026-05-06 23:43 41.05787 -85.96021 41328 ft 502 kts 140°
2026-05-06 23:43 41.03628 -85.92452 41567 ft 500 kts 140°
2026-05-06 23:43 41.01445 -85.88846 41802 ft 498 kts 140°
2026-05-06 23:44 40.99278 -85.85267 42047 ft 497 kts 139°
2026-05-06 23:44 40.97134 -85.81726 42288 ft 495 kts 139°
2026-05-06 23:44 40.94988 -85.78187 42531 ft 493 kts 139°
2026-05-06 23:44 40.92830 -85.74639 42787 ft 491 kts 139°
2026-05-06 23:45 40.90677 -85.71101 42933 ft 492 kts 139°
2026-05-06 23:45 40.86370 -85.64039 42990 ft 499 kts 139°
2026-05-06 23:46 40.81980 -85.56844 43000 ft 506 kts 139°
2026-05-06 23:46 40.77513 -85.49547 43000 ft 512 kts 139°
2026-05-06 23:47 40.73022 -85.42225 43005 ft 516 kts 139°
2026-05-06 23:47 40.68546 -85.34939 43004 ft 509 kts 139°
2026-05-06 23:48 40.64068 -85.27683 43002 ft 506 kts 140°
2026-05-06 23:48 40.59662 -85.20548 43002 ft 503 kts 140°
2026-05-06 23:49 40.55235 -85.13404 43002 ft 500 kts 140°
2026-05-06 23:49 40.50845 -85.06331 42993 ft 498 kts 140°
2026-05-06 23:50 40.46462 -84.99286 42994 ft 497 kts 140°
2026-05-06 23:50 40.39919 -84.88799 42997 ft 495 kts 140°
2026-05-06 23:51 40.35558 -84.81833 43001 ft 494 kts 141°
2026-05-06 23:51 40.31194 -84.74874 43000 ft 494 kts 141°
2026-05-06 23:52 40.26810 -84.67898 42997 ft 494 kts 141°
2026-05-06 23:52 40.22447 -84.60973 42998 ft 493 kts 141°
2026-05-06 23:53 40.18087 -84.54066 42999 ft 493 kts 141°
2026-05-06 23:53 40.13718 -84.47164 43002 ft 493 kts 141°
2026-05-06 23:54 40.09323 -84.40233 43003 ft 493 kts 141°
2026-05-06 23:54 40.04951 -84.33356 43008 ft 494 kts 141°
2026-05-06 23:55 40.00560 -84.26460 43006 ft 494 kts 141°
2026-05-06 23:55 39.96181 -84.19600 43010 ft 494 kts 141°
2026-05-06 23:56 39.91757 -84.12691 43010 ft 494 kts 141°
2026-05-06 23:56 39.87355 -84.05823 42991 ft 494 kts 141°
2026-05-06 23:57 39.82954 -83.98976 42990 ft 495 kts 142°
2026-05-06 23:57 39.78551 -83.92138 42993 ft 495 kts 142°
2026-05-06 23:58 39.74100 -83.85245 42998 ft 496 kts 142°
2026-05-06 23:58 39.69689 -83.78426 43003 ft 496 kts 142°
2026-05-06 23:59 39.65220 -83.71532 43003 ft 496 kts 142°
2026-05-06 23:59 39.60768 -83.64680 43005 ft 497 kts 142°
2026-05-07 00:00 39.56317 -83.57846 42997 ft 497 kts 142°
2026-05-07 00:00 39.52614 -83.52171 43003 ft 497 kts 142°
2026-05-07 00:01 39.47403 -83.44202 43003 ft 498 kts 142°
2026-05-07 00:01 39.42919 -83.37361 43004 ft 498 kts 142°
2026-05-07 00:02 39.38438 -83.30539 43005 ft 499 kts 142°
2026-05-07 00:02 39.33940 -83.23705 42999 ft 499 kts 142°
2026-05-07 00:03 39.29408 -83.16838 43000 ft 500 kts 142°
2026-05-07 00:03 39.24892 -83.10008 42982 ft 501 kts 142°
2026-05-07 00:04 39.20393 -83.03219 42973 ft 501 kts 142°
2026-05-07 00:04 39.15839 -82.96358 42967 ft 502 kts 142°
2026-05-07 00:05 39.11296 -82.89534 42976 ft 502 kts 142°
2026-05-07 00:05 39.06748 -82.82715 42976 ft 503 kts 142°
2026-05-07 00:06 39.02183 -82.75886 42968 ft 503 kts 142°
2026-05-07 00:06 38.97611 -82.69057 42971 ft 504 kts 142°
2026-05-07 00:07 38.93036 -82.62245 42971 ft 504 kts 142°
2026-05-07 00:07 38.88452 -82.55429 42962 ft 504 kts 142°
2026-05-07 00:08 38.83864 -82.48627 42962 ft 504 kts 142°
2026-05-07 00:08 38.79350 -82.41943 42960 ft 504 kts 142°
2026-05-07 00:09 38.74762 -82.35169 42949 ft 504 kts 142°
2026-05-07 00:09 38.70170 -82.28397 42952 ft 504 kts 142°
2026-05-07 00:10 38.65548 -82.21604 42948 ft 504 kts 142°
2026-05-07 00:10 38.60948 -82.14851 42952 ft 504 kts 142°
2026-05-07 00:11 38.56336 -82.08098 42950 ft 504 kts 143°
2026-05-07 00:11 38.51719 -82.01349 42953 ft 504 kts 143°
2026-05-07 00:12 38.47097 -81.94613 42964 ft 504 kts 143°
2026-05-07 00:12 38.42474 -81.87884 42964 ft 504 kts 143°
2026-05-07 00:13 38.38090 -81.80820 42968 ft 519 kts 133°
2026-05-07 00:13 38.34757 -81.72469 42974 ft 536 kts 118°
2026-05-07 00:14 38.33054 -81.64825 42972 ft 546 kts 105°
2026-05-07 00:14 38.31470 -81.55377 42972 ft 542 kts 112°
2026-05-07 00:15 38.28411 -81.46810 42967 ft 523 kts 133°
2026-05-07 00:15 38.26246 -81.43132 42969 ft 509 kts 142°
2026-05-07 00:15 38.23866 -81.39915 42501 ft 498 kts 147°
2026-05-07 00:16 38.21405 -81.36828 42036 ft 492 kts 148°
2026-05-07 00:16 38.19057 -81.33640 41774 ft 492 kts 142°
2026-05-07 00:16 38.16922 -81.30239 41634 ft 500 kts 139°
2026-05-07 00:16 38.14793 -81.26661 41505 ft 507 kts 139°
2026-05-07 00:17 38.10239 -81.19833 41405 ft 509 kts 143°
2026-05-07 00:17 38.07953 -81.16402 41289 ft 518 kts 140°
2026-05-07 00:17 38.05663 -81.12802 41171 ft 524 kts 140°
2026-05-07 00:18 38.03366 -81.09237 41053 ft 526 kts 141°
2026-05-07 00:18 38.00977 -81.05646 40943 ft 530 kts 142°
2026-05-07 00:18 37.98615 -81.02099 40811 ft 534 kts 141°
2026-05-07 00:18 37.96211 -80.98424 40697 ft 539 kts 140°
2026-05-07 00:19 37.93835 -80.94776 40574 ft 536 kts 141°
2026-05-07 00:19 37.91479 -80.91181 40447 ft 520 kts 141°
2026-05-07 00:19 37.89198 -80.87740 40313 ft 508 kts 142°
2026-05-07 00:19 37.86944 -80.84355 40173 ft 504 kts 142°
2026-05-07 00:20 37.84683 -80.80943 39970 ft 503 kts 142°
2026-05-07 00:20 37.82428 -80.77528 39713 ft 504 kts 142°
2026-05-07 00:20 37.80193 -80.74151 39458 ft 504 kts 142°
2026-05-07 00:20 37.77952 -80.70772 38970 ft 502 kts 143°
2026-05-07 00:21 37.75714 -80.67394 38307 ft 496 kts 143°
2026-05-07 00:21 37.73459 -80.64018 37490 ft 503 kts 143°
2026-05-07 00:21 37.71195 -80.60637 36713 ft 510 kts 142°
2026-05-07 00:21 37.68914 -80.57201 35973 ft 514 kts 141°
2026-05-07 00:22 37.66567 -80.53777 35252 ft 512 kts 144°
2026-05-07 00:22 37.64105 -80.50634 34566 ft 504 kts 150°
2026-05-07 00:22 37.61476 -80.47722 33894 ft 500 kts 152°
2026-05-07 00:22 37.58850 -80.44839 33146 ft 509 kts 150°
2026-05-07 00:23 37.56282 -80.41615 32406 ft 522 kts 145°
2026-05-07 00:23 37.53790 -80.38367 31699 ft 509 kts 145°
2026-05-07 00:23 37.51370 -80.35177 31006 ft 494 kts 145°
2026-05-07 00:23 37.49100 -80.32041 30330 ft 487 kts 140°
2026-05-07 00:24 37.46970 -80.28789 29597 ft 470 kts 143°
2026-05-07 00:24 37.44737 -80.25933 28946 ft 445 kts 150°
2026-05-07 00:24 37.42454 -80.23498 28912 ft 416 kts 153°
2026-05-07 00:24 37.40230 -80.21158 28905 ft 420 kts 152°
2026-05-07 00:25 37.38087 -80.18571 28918 ft 441 kts 145°
2026-05-07 00:25 37.35973 -80.15647 28920 ft 457 kts 142°
2026-05-07 00:25 37.31543 -80.09770 28932 ft 470 kts 146°
2026-05-07 00:26 37.26859 -80.03834 28933 ft 488 kts 143°
2026-05-07 00:26 37.22068 -79.97582 28935 ft 503 kts 144°
2026-05-07 00:27 37.17250 -79.91433 28935 ft 510 kts 143°
2026-05-07 00:27 37.12300 -79.85041 28924 ft 507 kts 143°
2026-05-07 00:28 37.07413 -79.78802 28916 ft 500 kts 143°
2026-05-07 00:28 37.02587 -79.72620 28878 ft 495 kts 142°
2026-05-07 00:29 37.00166 -79.69533 28302 ft 492 kts 142°
2026-05-07 00:29 36.97806 -79.66520 27667 ft 487 kts 142°
2026-05-07 00:30 36.90674 -79.57431 25739 ft 470 kts 141°
2026-05-07 00:30 36.88431 -79.54577 25135 ft 458 kts 142°
2026-05-07 00:30 36.86155 -79.51711 24528 ft 466 kts 142°
2026-05-07 00:30 36.83875 -79.48839 23921 ft 473 kts 141°
2026-05-07 00:31 36.81556 -79.45883 23261 ft 475 kts 141°
2026-05-07 00:31 36.79266 -79.42965 22622 ft 467 kts 141°
2026-05-07 00:31 36.77001 -79.40098 22014 ft 456 kts 141°
2026-05-07 00:31 36.74782 -79.37304 21417 ft 448 kts 141°
2026-05-07 00:32 36.72611 -79.34574 20834 ft 446 kts 141°
2026-05-07 00:32 36.70425 -79.31811 20247 ft 445 kts 141°
2026-05-07 00:32 36.68259 -79.29079 19665 ft 444 kts 141°
2026-05-07 00:32 36.66078 -79.26331 19080 ft 443 kts 141°
2026-05-07 00:33 36.63903 -79.23597 18499 ft 442 kts 140°
2026-05-07 00:33 36.61760 -79.20898 17881 ft 433 kts 140°
2026-05-07 00:33 36.59699 -79.18302 17347 ft 414 kts 140°
2026-05-07 00:33 36.57698 -79.15786 16809 ft 401 kts 141°
2026-05-07 00:34 36.55770 -79.13381 16291 ft 392 kts 140°
2026-05-07 00:34 36.53882 -79.11014 15781 ft 391 kts 140°
2026-05-07 00:34 36.51937 -79.08591 15258 ft 398 kts 140°
2026-05-07 00:34 36.49999 -79.06161 14761 ft 403 kts 140°
2026-05-07 00:35 36.48001 -79.03658 14216 ft 406 kts 139°
2026-05-07 00:35 36.46026 -79.01186 13685 ft 390 kts 139°
2026-05-07 00:35 36.44203 -78.98891 13167 ft 361 kts 139°
2026-05-07 00:35 36.42485 -78.96753 12710 ft 337 kts 140°
2026-05-07 00:36 36.40887 -78.94767 12279 ft 322 kts 140°
2026-05-07 00:36 36.39309 -78.92813 11842 ft 318 kts 140°
2026-05-07 00:36 36.37755 -78.90832 11348 ft 318 kts 139°
2026-05-07 00:36 36.36235 -78.88876 10867 ft 316 kts 139°
2026-05-07 00:37 36.34698 -78.86908 10380 ft 316 kts 140°
2026-05-07 00:37 36.33177 -78.84983 9903 ft 315 kts 140°
2026-05-07 00:37 36.31642 -78.83024 9389 ft 313 kts 140°
2026-05-07 00:37 36.30158 -78.81137 8953 ft 301 kts 139°
2026-05-07 00:38 36.28762 -78.79364 8657 ft 270 kts 141°
2026-05-07 00:38 36.27477 -78.77766 8322 ft 255 kts 141°
2026-05-07 00:38 36.26255 -78.76228 7989 ft 249 kts 140°
2026-05-07 00:38 36.25046 -78.74691 7656 ft 251 kts 140°
2026-05-07 00:39 36.23791 -78.73106 7309 ft 261 kts 140°
2026-05-07 00:39 36.22526 -78.71503 6970 ft 264 kts 139°
2026-05-07 00:39 36.21245 -78.69869 6621 ft 261 kts 140°
2026-05-07 00:39 36.19990 -78.68275 6272 ft 252 kts 140°
2026-05-07 00:40 36.18776 -78.66792 6027 ft 238 kts 146°
2026-05-07 00:40 36.17511 -78.65549 5985 ft 223 kts 144°
2026-05-07 00:40 36.16447 -78.64245 5976 ft 213 kts 141°
2026-05-07 00:40 36.15424 -78.62944 5972 ft 209 kts 141°
2026-05-07 00:41 36.14421 -78.61652 5976 ft 205 kts 141°
2026-05-07 00:41 36.13465 -78.60414 5988 ft 194 kts 141°
2026-05-07 00:41 36.12437 -78.59449 5976 ft 183 kts 167°
2026-05-07 00:41 36.11178 -78.58919 5751 ft 201 kts 169°
2026-05-07 00:42 36.09840 -78.58381 5530 ft 199 kts 171°
2026-05-07 00:42 36.08522 -78.57853 5238 ft 197 kts 171°
2026-05-07 00:42 36.07240 -78.57336 4891 ft 194 kts 173°
2026-05-07 00:42 36.05938 -78.57176 4525 ft 182 kts 193°
2026-05-07 00:43 36.04745 -78.57516 4153 ft 173 kts 209°
2026-05-07 00:43 36.03760 -78.58327 3789 ft 167 kts 225°
2026-05-07 00:43 36.02912 -78.59302 3428 ft 165 kts 228°
2026-05-07 00:43 36.02109 -78.60304 3063 ft 163 kts 228°
2026-05-07 00:44 36.01317 -78.61291 2689 ft 159 kts 227°
2026-05-07 00:44 36.00558 -78.62231 2470 ft 148 kts 227°
2026-05-07 00:44 35.99860 -78.63097 2377 ft 144 kts 227°
2026-05-07 00:44 35.99117 -78.64025 2299 ft 156 kts 227°
2026-05-07 00:45 35.98355 -78.64970 2225 ft 156 kts 227°
2026-05-07 00:45 35.97583 -78.65928 2160 ft 158 kts 227°
2026-05-07 00:45 35.96830 -78.66861 2069 ft 148 kts 227°
2026-05-07 00:45 35.96134 -78.67728 2018 ft 136 kts 227°
2026-05-07 00:46 35.95453 -78.68572 1991 ft 145 kts 227°
2026-05-07 00:46 35.94764 -78.69427 2004 ft 128 kts 227°
2026-05-07 00:46 35.94166 -78.70166 1987 ft 122 kts 227°
2026-05-07 00:46 35.93563 -78.70919 1975 ft 127 kts 227°
2026-05-07 00:47 35.92919 -78.71716 1822 ft 135 kts 227°
2026-05-07 00:47 35.92235 -78.72570 1650 ft 141 kts 227°
2026-05-07 00:47 35.91595 -78.73361 1461 ft 121 kts 226°
2026-05-07 00:47 35.91039 -78.74051 1303 ft 107 kts 226°
2026-05-07 00:48 35.90523 -78.74691 1166 ft 103 kts 225°
2026-05-07 00:48 35.90028 -78.75326 978 ft 105 kts 227°
2026-05-07 00:48 35.89527 -78.75972 857 ft 102 kts 225°
2026-05-07 00:48 35.89035 -78.76572 767 ft 102 kts 225°
2026-05-07 00:49 35.88526 -78.77186 674 ft 104 kts 223°
2026-05-07 00:49 35.88037 -78.77796 490 ft 96 kts 224°
2026-05-07 00:49 35.87602 -78.78337 425 ft 78 kts 223°
2026-05-07 00:49 35.87302 -78.78701 419 ft 35 kts 225°
2026-05-07 00:50 35.87162 -78.78878 416 ft 19 kts 243°
2026-05-07 00:50 35.87208 -78.78976 419 ft 0 kts 317°
2026-05-07 00:51 35.87208 -78.78977 419 ft 3 kts 325°
2026-05-07 00:51 35.87289 -78.78906 416 ft 20 kts 44°
2026-05-07 00:51 35.87379 -78.78796 422 ft 18 kts 45°
2026-05-07 00:51 35.87473 -78.78679 426 ft 19 kts 45°
2026-05-07 00:52 35.87565 -78.78566 428 ft 18 kts 45°
2026-05-07 00:52 35.87652 -78.78459 426 ft 18 kts 45°
2026-05-07 00:52 35.87748 -78.78418 423 ft 15 kts 355°
2026-05-07 00:52 35.87821 -78.78372 430 ft 7 kts 341°
2026-05-07 00:53 35.87870 -78.78422 430 ft 10 kts 320°
2026-05-07 00:53 35.87912 -78.78410 422 ft 0 kts 49°